Tracking 30685 objects as of 17-Jun-2025
HD Live streaming from Space Station
objects crossing your sky now

NOAA 16 DEB

Track NOAA 16 DEB now!
10-day predictions


NORAD ID: 42387
Int'l Code: 2000-055SF
Perigee: 763.9 km
Apogee: 782.2 km
Inclination: 98.8 °
Period: 100.2 minutes
Semi major axis: 7144 km
RCS: Unknown
Launch date: September 21, 2000
Source: United States (US)
Launch site: AIR FORCE WESTERN TEST RANGE (AFWTR)

Note: This is SATELLITE DEBRIS
Your satellite tracking list
Your tracking list is empty




NASA's NSSDC Master Catalog

Two Line Element Set (TLE):
1 42387U 00055SF  25167.15950768  .00004872  00000-0  16313-2 0  9993
2 42387  98.8234 280.9585 0012818 232.4194 127.5828 14.37771431482940
Source of the keplerian elements: AFSPC